Other Public Products
Issued by NWS Grand Forks, ND

Home | Current Version | Previous Version | Graphics & Text | Print | Product List | Glossary On
Versions: 1 2 3 4 5 6 7 8 9 10 11 12 13 14 15 16 17 18 19 20 21 22 23 24 25 26 27 28 29 30 31 32 33 34 35 36 37 38 39 40 41 42 43 44 45 46 47 48 49 50
338
FPUS83 KFGF 251810
OPUFGF
PRAIRIE TO PINES WEATHER ROUNDUP
NATIONAL WEATHER SERVICE EASTERN NORTH DAKOTA/GRAND FORKS ND
100 PM CDT WED MAY 25 2016

 **SATELLITE DATA USED TO AUGMENT SKY COVER AT AUTOMATED STATIONS**
 *****  WEATHER ACROSS EASTERN NORTH DAKOTA  *****

CITY           SKY/WX    TMP DP  RH WIND       PRES   REMARKS
GRAND FORKS    TSTM      62  60  93 W18G24    29.78S VSB 1/2
6HR MIN TEMP:  60; 6HR MAX TEMP:  69; 6HR PCP:  0.08;

GRAND FORKS AF LGT RAIN  61  59  94 NW7       29.80R FOG
GRAND CITY NWS   N/A     61 N/A N/A W18         N/A
BUXTON           N/A     63  62  99 CALM        N/A
DEVILS LAKE    RAIN      58  56  93 N9        29.84S
6HR MIN TEMP:  58; 6HR MAX TEMP:  63; 6HR PCP:  0.34;

FARGO          LGT RAIN  64  59  83 E13       29.74F
6HR MIN TEMP:  63; 6HR MAX TEMP:  68; 6HR PCP:  0.36;

WAHPETON ARPT  CLOUDY    63  59  88 S9        29.73F
$$

 *****  WEATHER ACROSS CENTRAL AND WESTERN NORTH DAKOTA  *****

CITY           SKY/WX    TMP DP  RH WIND       PRES   REMARKS
JAMESTOWN      NOT AVBL
BISMARCK       CLOUDY    63  58  83 SE8       29.80R
6HR MIN TEMP:  57; 6HR MAX TEMP:  63; 6HR PCP:  0.04;

MINOT          CLOUDY    62  55  77 NE5       29.80F
6HR MIN TEMP:  57; 6HR MAX TEMP:  63; 6HR PCP:  0.07;

MINOT AFB      CLOUDY    59  55  84 NE3       29.80S
6HR MIN TEMP:  56; 6HR MAX TEMP:  59; 6HR PCP:  0.12;

GARRISON         N/A     64  57  78 E10       29.79F
6HR MIN TEMP:  56; 6HR MAX TEMP:  64; 6HR PCP:  0.03;

WILLISTON      CLOUDY    54  49  83 N17       29.83S
6HR MIN TEMP:  52; 6HR MAX TEMP:  54; 6HR PCP:  0.31;

DICKINSON      CLOUDY    61  51  70 W14       29.79S
6HR MIN TEMP:  50; 6HR MAX TEMP:  61; 6HR PCP:  0.01;

HETTINGER      CLOUDY    64  50  60 W14       29.82S
6HR MIN TEMP:  50; 6HR MAX TEMP:  67;

$$

 *****  OTHER OBSERVATIONS NORTHEAST NORTH DAKOTA  *****

CITY           SKY/WX    TMP DP  RH WIND       PRES   REMARKS
WALHALLA       TSTM      59  59 100 S14G35    29.83R
LANGDON        RAIN      59  59 100 NW12G23   29.82R
CAVALIER       LGT RAIN  61  61 100 SE10G16   29.81R VSB 3/4
GRAFTON        TSTM      61  61 100 SE10      29.86R VSB 1/2
CANDO          RAIN      57  57 100 N10       29.86S
FORT TOTTEN      N/A     57  57 100 N3        29.95S
ROLLA          RAIN      55  55 100 N9        29.87R
RUGBY          LGT RAIN  59  59 100 NE9       29.83R
 ***** THE ABOVE OBSERVATIONS ARE NON NWS ARE NOT QUALITY
        CONTROLLED AND MAY MIS-REPORT RAIN FOR SNOW...
$$

 *****  OTHER OBSERVATIONS SOUTHEAST NORTH DAKOTA *****

CITY           SKY/WX    TMP DP  RH WIND       PRES   REMARKS
COOPERSTOWN    NOT AVBL
VALLEY CITY    LGT RAIN  59  59 100 N14G21    29.78F
OAKES            N/A    N/A N/A N/A MISG        N/A
GWINNER        CLOUDY    64  63  94 SE10      29.71F
SHEYENNE NWR     N/A     64  62  92 E9        29.95S
BUFFALO          N/A     60  57  91 N14         N/A
WYNDMERE         N/A     66  63  88 SE10        N/A
 ***** THE ABOVE OBSERVATIONS ARE NON NWS ARE NOT QUALITY
       CONTROLLED AND MAY MIS-REPORT RAIN FOR SNOW...
$$

  *****  WEATHER ACROSS NORTHERN MINNESOTA  *****

CITY           SKY/WX    TMP DP  RH WIND       PRES   REMARKS
FLAG ISLAND    CLOUDY    61  54  77 SE10      29.94R
WARROAD        HVY RAIN  57  54  88 NE14      29.91F
ROSEAU         LGT RAIN  61  55  82 E15       29.88F
HALLOCK        CLOUDY    63  57  82 E20G28    29.79F
THF RVR FALLS  CLOUDY    64  57  77 E18       29.83S
6HR MIN TEMP:  61; 6HR MAX TEMP:  66; 6HR PCP:  0.09;

HALSTAD        NOT AVBL
FOSSTON        LGT RAIN  64  55  72 SE14      29.83F
BAUDETTE       LGT RAIN  58  55  90 N7        29.93F
6HR MIN TEMP:  54; 6HR MAX TEMP:  59; 6HR PCP:  0.04;

WASKISH        CLOUDY    64  57  77 E12       29.90S
CROOKSTON      CLOUDY    66  61  82 SE10      29.81S
$$
  *****  WEATHER ACROSS CENTRAL AND WEST MINNESOTA  *****

CITY           SKY/WX    TMP DP  RH WIND       PRES   REMARKS
BEMIDJI        CLOUDY    66  56  71 SE17G24   29.88R
PARK RAPIDS    LGT RAIN  62  58  86 SE15G21   29.85F
6HR MIN TEMP:  59; 6HR MAX TEMP:  66; 6HR PCP:  0.07;

WADENA         LGT RAIN  61  59  94 E15G24    29.80F
DETROIT LAKES  RAIN      61  57  88 SE16      29.80F
MOORHEAD       LGT RAIN  64  61  88 E3        29.75F
FERGUS FALLS   CLOUDY    66  57  72 SE17G25   29.71F
ELBOW LAKE     CLOUDY    65  60  84 SE21G28   29.74F
6HR MIN TEMP:  62; 6HR MAX TEMP:  65; 6HR PCP:  0.03;

MORRIS MN      MOSUNNY   72  63  73 S24G31    29.75S
STAPLES        LGT RAIN  61  57  88 E10G16    29.84F
WHEATON        MOSUNNY   70  63  78 S17G25    29.74S
$$
  *****  WEATHER ELSEWHERE ACROSS MINNESOTA  *****

CITY           SKY/WX    TMP DP  RH WIND       PRES   REMARKS
DULUTH         FOG       51  49  92 E17G25    29.99F VSB 1/2
6HR MIN TEMP:  49; 6HR MAX TEMP:  51; 6HR PCP: TRACE;

INTRNTL FALLS  CLOUDY    64  54  69 E13       29.95F
6HR MIN TEMP:  53; 6HR MAX TEMP:  64;

ELY            CLOUDY    64  48  55 SE14      30.01S
CLOQUET        CLOUDY    52  50  93 E17       29.97F FOG
BRAINERD       LGT RAIN  58  57  97 E8        29.88F FOG
6HR MIN TEMP:  56; 6HR MAX TEMP:  61; 6HR PCP:  0.16;

HIBBING        CLOUDY    63  53  70 SE14      29.96F
6HR MIN TEMP:  53; 6HR MAX TEMP:  64;

ALEXANDRIA     CLOUDY    64  59  83 SE15      29.81S
6HR MIN TEMP:  60; 6HR MAX TEMP:  64; 6HR PCP:  0.10;

SAINT CLOUD    LGT RAIN  64  62  93 VRB5      29.87R FOG
6HR MIN TEMP:  59; 6HR MAX TEMP:  66; 6HR PCP:  0.58;

MINNEAPOLIS    CLOUDY    71  64  78 E10       29.84F
6HR MIN TEMP:  67; 6HR MAX TEMP:  72; 6HR PCP:  0.33;

$$

  *****  WEATHER ACROSS SOUTH DAKOTA  *****

CITY           SKY/WX    TMP DP  RH WIND       PRES   REMARKS
SIOUX FALLS    PTSUNNY   72  60  66 SW7G17    29.82S
6HR MIN TEMP:  60; 6HR MAX TEMP:  73; 6HR PCP: TRACE;

BROOKINGS      CLOUDY    69  60  73 SW12      29.81S
WATERTOWN      PTSUNNY   70  60  70 SW20G29   29.77R
6HR MIN TEMP:  62; 6HR MAX TEMP:  71; 6HR PCP:  0.12;

HURON          PTSUNNY   72  60  66 SW12      29.78R
6HR MIN TEMP:  59; 6HR MAX TEMP:  72; 6HR PCP:  0.03;

SISSETON         N/A     68  61  78 S21G30    29.69F
ABERDEEN       MOSUNNY   71  61  70 W12       29.74S
6HR MIN TEMP:  60; 6HR MAX TEMP:  71; 6HR PCP:  0.28;

MITCHELL       PTSUNNY   73  61  65 SW7       29.81R
PIERRE         SUNNY     71  57  61 NW12G20   29.77S
6HR MIN TEMP:  55; 6HR MAX TEMP:  71;

MOBRIDGE       CLOUDY    69  54  58 W3        29.74S
RAPID CITY     PTSUNNY   64  52  64 N13G22    29.84S
6HR MIN TEMP:  47; 6HR MAX TEMP:  68;

$$

  *****  SOME WEATHER IN NEARBY STATES *****

CITY           SKY/WX    TMP DP  RH WIND       PRES   REMARKS
GLASGOW MT     PTSUNNY   60  43  53 VRB3      29.86F
6HR MIN TEMP:  45; 6HR MAX TEMP:  62;

GREAT FALLS MT SUNNY     63  38  39 SW15      29.89S
6HR MIN TEMP:  38; 6HR MAX TEMP:  63;

CHEYENNE WY    PTSUNNY   63  35  35 SW16      30.01S
6HR MIN TEMP:  44; 6HR MAX TEMP:  64; 6HR PCP: TRACE;

SCOTTSBLUFF NE MOSUNNY   71  40  32 W9G23     29.93F
6HR MIN TEMP:  50; 6HR MAX TEMP:  72;

OMAHA NE       MOSUNNY   76  61  59 S10       29.82F
6HR MIN TEMP:  64; 6HR MAX TEMP:  76; 6HR PCP: TRACE;

DES MOINES IA  CLOUDY    74  63  68 S16       29.87S
6HR MIN TEMP:  66; 6HR MAX TEMP:  75; 6HR PCP:  0.01;

DAVENPORT IA   PTSUNNY   83  63  50 S18       29.92S
6HR MIN TEMP:  67; 6HR MAX TEMP:  85;

CHICAGO IL     CLOUDY    81  62  52 SE9       29.96F
6HR MIN TEMP:  69; 6HR MAX TEMP:  81;

EAU CLAIRE WI  LGT RAIN  76  61  59 SE9       29.89R
6HR MIN TEMP:  61; 6HR MAX TEMP:  79; 6HR PCP: TRACE;

LA CROSSE WI   CLOUDY    78  64  61 SW8       29.87F
6HR MIN TEMP:  64; 6HR MAX TEMP:  79; 6HR PCP:  0.01;

$$

  *****  SOME NATIONAL WEATHER *****

CITY           SKY/WX    TMP DP  RH WIND       PRES   REMARKS
LA GUARDIA NY  MOSUNNY   86  49  27 VRB3      30.03F
6HR MIN TEMP:  70; 6HR MAX TEMP:  87;                              C1F1C2F2C3F3C4F4C5F5C6F6C7F7C8F8C9F9CaFaCbFbCcFcCdFdCe!



USA.gov is the U.S. government's official web portal to all federal, state and local government web resources and services.